| time (UTC) | temp F | wind direction | speed MPH | gust MPH | rain 1hr in | rain 24hr in | rain mn in | humidity % | barometer mb |
| 20260901043841 | 86 | 128 | 0.0 | 2.0 | 0.00 | 0.00 | 0.00 | 42 | 1016.8 |
| 20260901043337 | 87 | 142 | 0.0 | 1.0 | 0.00 | 0.00 | 0.00 | 41 | 1017.0 |
| 20260901042836 | 87 | 155 | 1.0 | 3.0 | 0.00 | 0.00 | 0.00 | 41 | 1016.9 |
| 20260901042331 | 87 | 125 | 0.0 | 1.0 | 0.00 | 0.00 | 0.00 | 41 | 1016.9 |
| 20260901041827 | 87 | 146 | 1.0 | 2.0 | 0.00 | 0.00 | 0.00 | 40 | 1016.7 |
| 20260901041322 | 87 | 162 | 3.0 | 3.0 | 0.00 | 0.00 | 0.00 | 40 | 1016.8 |
| 20260901040821 | 88 | 164 | 0.0 | 3.0 | 0.00 | 0.00 | 0.00 | 40 | 1016.9 |
| 20260901040320 | 88 | 130 | 1.0 | 2.0 | 0.00 | 0.00 | 0.00 | 39 | 1016.7 |
| 20260901035815 | 88 | 50 | 0.0 | 2.0 | 0.00 | 0.00 | 0.00 | 39 | 1016.7 |
| 20260901035314 | 88 | 186 | 0.0 | 3.0 | 0.00 | 0.00 | 0.00 | 40 | 1016.9 |
| 20260901034813 | 89 | 140 | 0.0 | 2.0 | 0.00 | 0.00 | 0.00 | 39 | 1016.7 |
| 20260901034308 | 89 | 195 | 3.0 | 4.0 | 0.00 | 0.00 | 0.00 | 38 | 1016.8 |
| 20260901033802 | 89 | 145 | 2.0 | 2.0 | 0.00 | 0.00 | 0.00 | 38 | 1016.6 |
| 20260901033301 | 89 | 110 | 2.0 | 8.0 | 0.00 | 0.00 | 0.00 | 38 | 1016.7 |
| 20260901032759 | 89 | 184 | 4.0 | 4.0 | 0.00 | 0.00 | 0.00 | 38 | 1016.9 |
| 20260901032254 | 89 | 152 | 0.0 | 2.0 | 0.00 | 0.00 | 0.00 | 38 | 1016.8 |
| 20260901031749 | 89 | 195 | 2.0 | 2.0 | 0.00 | 0.00 | 0.00 | 38 | 1016.7 |
| 20260901031244 | 89 | 129 | 2.0 | 3.0 | 0.00 | 0.00 | 0.00 | 38 | 1016.5 |
| 20260901030739 | 89 | 192 | 1.0 | 2.0 | 0.00 | 0.00 | 0.00 | 38 | 1016.6 |
| 20260901030234 | 89 | 175 | 2.0 | 3.0 | 0.00 | 0.00 | 0.00 | 38 | 1016.4 |
| 20260901025728 | 89 | 157 | 3.0 | 3.0 | 0.00 | 0.00 | 0.00 | 38 | 1016.5 |
| 20260901025223 | 89 | 155 | 0.0 | 1.0 | 0.00 | 0.00 | 0.00 | 38 | 1016.5 |
| 20260901024717 | 90 | 142 | 0.0 | 3.0 | 0.00 | 0.00 | 0.00 | 37 | 1016.3 |
| 20260901024217 | 89 | 149 | 1.0 | 2.0 | 0.00 | 0.00 | 0.00 | 38 | 1016.1 |
| 20260901023715 | 89 | 138 | 0.0 | 1.0 | 0.00 | 0.00 | 0.00 | 38 | 1016.3 |
| 20260901023210 | 90 | 127 | 1.0 | 2.0 | 0.00 | 0.00 | 0.00 | 37 | 1016.1 |
| 20260901022706 | 90 | 173 | 0.0 | 1.0 | 0.00 | 0.00 | 0.00 | 37 | 1016.2 |
| 20260901022201 | 90 | 60 | 1.0 | 1.0 | 0.00 | 0.00 | 0.00 | 37 | 1016.0 |
| 20260901021656 | 90 | 121 | 0.0 | 1.0 | 0.00 | 0.00 | 0.00 | 37 | 1015.7 |
| 20260901021151 | 91 | 125 | 0.0 | 0.0 | 0.00 | 0.00 | 0.00 | 36 | 1015.8 |
| 20260901020647 | 91 | 27 | 0.0 | 2.0 | 0.00 | 0.00 | 0.00 | 36 | 1015.8 |
| 20260901020142 | 91 | 44 | 0.0 | 1.0 | 0.00 | 0.00 | 0.00 | 35 | 1015.7 |
| 20260901015637 | 91 | 175 | 0.0 | 2.0 | 0.00 | 0.00 | 0.00 | 35 | 1015.5 |
| 20260901015137 | 92 | 110 | 2.0 | 2.0 | 0.00 | 0.00 | 0.00 | 34 | 1015.6 |
| 20260901014632 | 92 | 185 | 0.0 | 1.0 | 0.00 | 0.00 | 0.00 | 34 | 1015.5 |
| 20260901014128 | 93 | 147 | 1.0 | 6.0 | 0.00 | 0.00 | 0.00 | 33 | 1015.4 |
| 20260901013624 | 93 | 90 | 1.0 | 2.0 | 0.00 | 0.00 | 0.00 | 33 | 1015.5 |
| 20260901013119 | 93 | 135 | 0.0 | 4.0 | 0.00 | 0.00 | 0.00 | 33 | 1015.3 |
| 20260901012619 | 93 | 161 | 1.0 | 3.0 | 0.00 | 0.00 | 0.00 | 33 | 1015.3 |
| 20260901012114 | 93 | 147 | 0.0 | 3.0 | 0.00 | 0.00 | 0.00 | 33 | 1015.2 |
| 20260901011611 | 94 | 60 | 2.0 | 6.0 | 0.00 | 0.00 | 0.00 | 33 | 1015.3 |
| 20260901011109 | 94 | 113 | 2.0 | 2.0 | 0.00 | 0.00 | 0.00 | 32 | 1015.3 |
| 20260901010604 | 94 | 142 | 0.0 | 0.0 | 0.00 | 0.00 | 0.00 | 32 | 1015.1 |
| 20260901005558 | 95 | 31 | 1.0 | 8.0 | 0.00 | 0.00 | 0.00 | 31 | 1014.9 |
| 20260901005053 | 96 | 189 | 2.0 | 6.0 | 0.00 | 0.00 | 0.00 | 31 | 1014.9 |
| 20260901004552 | 96 | 174 | 3.0 | 6.0 | 0.00 | 0.00 | 0.00 | 31 | 1014.8 |
| 20260901004047 | 96 | 187 | 5.0 | 9.0 | 0.00 | 0.00 | 0.00 | 31 | 1015.0 |
| 20260901003543 | 97 | 183 | 1.0 | 2.0 | 0.00 | 0.00 | 0.00 | 31 | 1015.1 |
| 20260901003040 | 97 | 186 | 2.0 | 9.0 | 0.00 | 0.00 | 0.00 | 31 | 1015.0 |
| 20260901002540 | 97 | 239 | 2.0 | 4.0 | 0.00 | 0.00 | 0.00 | 30 | 1015.0 |
| 20260901002035 | 98 | 149 | 2.0 | 7.0 | 0.00 | 0.00 | 0.00 | 30 | 1014.8 |
| 20260901001530 | 98 | 160 | 1.0 | 4.0 | 0.00 | 0.00 | 0.00 | 30 | 1014.9 |
| 20260901001026 | 98 | 183 | 5.0 | 9.0 | 0.00 | 0.00 | 0.00 | 30 | 1014.9 |
| 20260901000525 | 98 | 104 | 1.0 | 9.0 | 0.00 | 0.00 | 0.00 | 30 | 1015.0 |
| 20260901000021 | 99 | 187 | 4.0 | 6.0 | 0.00 | 0.00 | 0.00 | 29 | 1014.9 |
| 20260831235515 | 98 | 181 | 4.0 | 7.0 | 0.00 | 0.00 | 0.00 | 29 | 1014.9 |
| 20260831235011 | 99 | 104 | 1.0 | 6.0 | 0.00 | 0.00 | 0.00 | 30 | 1015.0 |
| 20260831234505 | 99 | 197 | 2.0 | 3.0 | 0.00 | 0.00 | 0.00 | 29 | 1014.9 |
| 20260831234001 | 99 | 202 | 6.0 | 9.0 | 0.00 | 0.00 | 0.00 | 29 | 1014.8 |
| 20260831233455 | 100 | 196 | 1.0 | 6.0 | 0.00 | 0.00 | 0.00 | 29 | 1014.9 |
| 20260831232951 | 100 | 153 | 3.0 | 8.0 | 0.00 | 0.00 | 0.00 | 29 | 1014.8 |
| 20260831232446 | 100 | 195 | 4.0 | 6.0 | 0.00 | 0.00 | 0.00 | 29 | 1014.9 |
| 20260831231942 | 101 | 208 | 8.0 | 9.0 | 0.00 | 0.00 | 0.00 | 28 | 1015.0 |
| 20260831231439 | 100 | 98 | 2.0 | 4.0 | 0.00 | 0.00 | 0.00 | 29 | 1014.8 |
| 20260831230934 | 100 | 52 | 3.0 | 6.0 | 0.00 | 0.00 | 0.00 | 29 | 1014.9 |
| 20260831230429 | 100 | 190 | 4.0 | 7.0 | 0.00 | 0.00 | 0.00 | 29 | 1015.0 |
| 20260831225923 | 100 | 204 | 5.0 | 8.0 | 0.00 | 0.00 | 0.00 | 29 | 1015.1 |
| 20260831225419 | 100 | 169 | 4.0 | 8.0 | 0.00 | 0.00 | 0.00 | 29 | 1015.1 |
| 20260831224914 | 100 | 183 | 8.0 | 10.0 | 0.00 | 0.00 | 0.00 | 29 | 1015.1 |
| 20260831224413 | 100 | 203 | 6.0 | 13.0 | 0.00 | 0.00 | 0.00 | 30 | 1015.1 |
| 20260831223908 | 100 | 174 | 6.0 | 13.0 | 0.00 | 0.00 | 0.00 | 30 | 1015.1 |
| 20260831223404 | 101 | 181 | 4.0 | 7.0 | 0.00 | 0.00 | 0.00 | 29 | 1015.0 |
| 20260831222901 | 100 | 164 | 2.0 | 8.0 | 0.00 | 0.00 | 0.00 | 29 | 1014.9 |
| 20260831222356 | 101 | 205 | 6.0 | 9.0 | 0.00 | 0.00 | 0.00 | 29 | 1014.9 |
| 20260831221851 | 101 | 196 | 5.0 | 11.0 | 0.00 | 0.00 | 0.00 | 29 | 1015.1 |
| 20260831221347 | 101 | 210 | 4.0 | 4.0 | 0.00 | 0.00 | 0.00 | 28 | 1014.9 |
| 20260831220842 | 101 | 209 | 5.0 | 7.0 | 0.00 | 0.00 | 0.00 | 28 | 1015.1 |
| 20260831220337 | 102 | 193 | 8.0 | 11.0 | 0.00 | 0.00 | 0.00 | 28 | 1015.1 |
| 20260831215832 | 103 | 217 | 2.0 | 8.0 | 0.00 | 0.00 | 0.00 | 28 | 1015.0 |
| 20260831215327 | 102 | 246 | 4.0 | 11.0 | 0.00 | 0.00 | 0.00 | 29 | 1015.0 |
| 20260831214824 | 102 | 186 | 6.0 | 10.0 | 0.00 | 0.00 | 0.00 | 28 | 1015.2 |
| 20260831214322 | 104 | 204 | 8.0 | 11.0 | 0.00 | 0.00 | 0.00 | 27 | 1014.9 |
| 20260831213816 | 104 | 148 | 1.0 | 3.0 | 0.00 | 0.00 | 0.00 | 27 | 1015.1 |
| 20260831213313 | 104 | 46 | 2.0 | 7.0 | 0.00 | 0.00 | 0.00 | 27 | 1015.2 |
| 20260831212808 | 102 | 150 | 7.0 | 13.0 | 0.00 | 0.00 | 0.00 | 28 | 1015.4 |
| 20260831212306 | 102 | 196 | 5.0 | 11.0 | 0.00 | 0.00 | 0.00 | 28 | 1015.3 |
| 20260831211803 | 102 | 179 | 4.0 | 6.0 | 0.00 | 0.00 | 0.00 | 29 | 1015.4 |
| 20260831211258 | 103 | 282 | 6.0 | 8.0 | 0.00 | 0.00 | 0.00 | 28 | 1015.3 |
| 20260831210752 | 102 | 239 | 4.0 | 7.0 | 0.00 | 0.00 | 0.00 | 29 | 1015.6 |
| 20260831210249 | 101 | 181 | 6.0 | 9.0 | 0.00 | 0.00 | 0.00 | 29 | 1015.5 |
| 20260831205748 | 102 | 204 | 9.0 | 11.0 | 0.00 | 0.00 | 0.00 | 29 | 1015.5 |
| 20260831205244 | 102 | 197 | 5.0 | 8.0 | 0.00 | 0.00 | 0.00 | 29 | 1015.7 |
| 20260831204743 | 103 | 193 | 5.0 | 8.0 | 0.00 | 0.00 | 0.00 | 28 | 1015.7 |
| 20260831204243 | 101 | 15 | 1.0 | 6.0 | 0.00 | 0.00 | 0.00 | 30 | 1015.5 |
| 20260831203742 | 103 | 190 | 2.0 | 8.0 | 0.00 | 0.00 | 0.00 | 28 | 1015.6 |
| 20260831203237 | 103 | 188 | 2.0 | 8.0 | 0.00 | 0.00 | 0.00 | 28 | 1015.7 |
| 20260831202735 | 104 | 208 | 6.0 | 8.0 | 0.00 | 0.00 | 0.00 | 27 | 1015.8 |
| 20260831202230 | 103 | 205 | 1.0 | 13.0 | 0.00 | 0.00 | 0.00 | 29 | 1015.7 |
| 20260831201724 | 102 | 185 | 7.0 | 9.0 | 0.00 | 0.00 | 0.00 | 28 | 1015.8 |
| 20260831201219 | 102 | 90 | 1.0 | 14.0 | 0.00 | 0.00 | 0.00 | 29 | 1015.9 |
| 20260831200715 | 104 | 210 | 6.0 | 9.0 | 0.00 | 0.00 | 0.00 | 27 | 1015.9 |
| 20260831200214 | 102 | 173 | 1.0 | 7.0 | 0.00 | 0.00 | 0.00 | 29 | 1016.0 |
| 20260831195710 | 103 | 25 | 2.0 | 11.0 | 0.00 | 0.00 | 0.00 | 28 | 1015.8 |
| 20260831195205 | 102 | 248 | 5.0 | 10.0 | 0.00 | 0.00 | 0.00 | 29 | 1016.2 |
| 20260831194700 | 103 | 44 | 0.0 | 6.0 | 0.00 | 0.00 | 0.00 | 28 | 1016.2 |
| 20260831194155 | 103 | 327 | 1.0 | 8.0 | 0.00 | 0.00 | 0.00 | 28 | 1016.2 |
| 20260831193649 | 103 | 219 | 4.0 | 6.0 | 0.00 | 0.00 | 0.00 | 27 | 1016.3 |
| 20260831193145 | 103 | 253 | 5.0 | 11.0 | 0.00 | 0.00 | 0.00 | 27 | 1016.4 |
| 20260831192640 | 102 | 186 | 5.0 | 9.0 | 0.00 | 0.00 | 0.00 | 28 | 1016.4 |
| 20260831192135 | 103 | 62 | 4.0 | 8.0 | 0.00 | 0.00 | 0.00 | 28 | 1016.4 |
| 20260831191631 | 101 | 249 | 5.0 | 7.0 | 0.00 | 0.00 | 0.00 | 29 | 1016.5 |
| 20260831191127 | 102 | 248 | 5.0 | 9.0 | 0.00 | 0.00 | 0.00 | 30 | 1016.3 |
| 20260831190622 | 102 | 261 | 6.0 | 9.0 | 0.00 | 0.00 | 0.00 | 30 | 1016.5 |
| 20260831190121 | 102 | 196 | 3.0 | 4.0 | 0.00 | 0.00 | 0.00 | 29 | 1016.6 |
| 20260831185616 | 101 | 204 | 5.0 | 10.0 | 0.00 | 0.00 | 0.00 | 30 | 1016.6 |
| 20260831185112 | 103 | 193 | 5.0 | 6.0 | 0.00 | 0.00 | 0.00 | 29 | 1016.7 |
| 20260831184612 | 102 | 222 | 1.0 | 2.0 | 0.00 | 0.00 | 0.00 | 30 | 1016.9 |
| 20260831184107 | 102 | 161 | 1.0 | 4.0 | 0.00 | 0.00 | 0.00 | 30 | 1016.9 |
| 20260831183606 | 101 | 35 | 1.0 | 2.0 | 0.00 | 0.00 | 0.00 | 30 | 1016.9 |
| 20260831183101 | 102 | 191 | 5.0 | 8.0 | 0.00 | 0.00 | 0.00 | 30 | 1016.9 |
| 20260831182600 | 101 | 167 | 3.0 | 4.0 | 0.00 | 0.00 | 0.00 | 31 | 1017.0 |
| 20260831182056 | 100 | 143 | 1.0 | 7.0 | 0.00 | 0.00 | 0.00 | 31 | 1017.0 |
| 20260831181555 | 100 | 206 | 5.0 | 7.0 | 0.00 | 0.00 | 0.00 | 32 | 1017.1 |
| 20260831181050 | 100 | 207 | 6.0 | 9.0 | 0.00 | 0.00 | 0.00 | 31 | 1017.2 |
| 20260831180545 | 101 | 236 | 4.0 | 6.0 | 0.00 | 0.00 | 0.00 | 31 | 1017.0 |
| 20260831180040 | 100 | 201 | 2.0 | 10.0 | 0.00 | 0.00 | 0.00 | 29 | 1017.1 |
| 20260831175535 | 100 | 230 | 6.0 | 10.0 | 0.00 | 0.00 | 0.00 | 33 | 1017.2 |
| 20260831175032 | 100 | 140 | 2.0 | 6.0 | 0.00 | 0.00 | 0.00 | 32 | 1017.1 |
| 20260831174526 | 99 | 246 | 7.0 | 10.0 | 0.00 | 0.00 | 0.00 | 33 | 1017.4 |
| 20260831174020 | 99 | 173 | 6.0 | 10.0 | 0.00 | 0.00 | 0.00 | 34 | 1017.1 |
| 20260831173519 | 100 | 184 | 8.0 | 13.0 | 0.00 | 0.00 | 0.00 | 33 | 1017.4 |
| 20260831173016 | 99 | 192 | 3.0 | 3.0 | 0.00 | 0.00 | 0.00 | 34 | 1017.7 |
| 20260831172510 | 99 | 241 | 7.0 | 10.0 | 0.00 | 0.00 | 0.00 | 34 | 1017.7 |
| 20260831172005 | 98 | 201 | 7.0 | 11.0 | 0.00 | 0.00 | 0.00 | 36 | 1017.7 |
| 20260831171501 | 98 | 206 | 3.0 | 10.0 | 0.00 | 0.00 | 0.00 | 36 | 1017.9 |
| 20260831170958 | 98 | 162 | 4.0 | 11.0 | 0.00 | 0.00 | 0.00 | 37 | 1017.8 |
| 20260831170454 | 98 | 186 | 3.0 | 7.0 | 0.00 | 0.00 | 0.00 | 37 | 1018.1 |
| 20260831165951 | 97 | 161 | 3.0 | 9.0 | 0.00 | 0.00 | 0.00 | 37 | 1018.0 |
| 20260831165446 | 97 | 199 | 6.0 | 9.0 | 0.00 | 0.00 | 0.00 | 37 | 1018.0 |
| 20260831164943 | 97 | 94 | 5.0 | 6.0 | 0.00 | 0.00 | 0.00 | 38 | 1018.1 |
| 20260831164438 | 98 | 159 | 5.0 | 8.0 | 0.00 | 0.00 | 0.00 | 37 | 1018.1 |
| 20260831163938 | 97 | 157 | 4.0 | 7.0 | 0.00 | 0.00 | 0.00 | 39 | 1018.1 |
| 20260831163434 | 96 | 255 | 4.0 | 10.0 | 0.00 | 0.00 | 0.00 | 40 | 1018.0 |
| 20260831162932 | 96 | 200 | 6.0 | 9.0 | 0.00 | 0.00 | 0.00 | 40 | 1018.0 |
| 20260831162428 | 95 | 224 | 6.0 | 10.0 | 0.00 | 0.00 | 0.00 | 40 | 1017.8 |
| 20260831161926 | 96 | 224 | 5.0 | 11.0 | 0.00 | 0.00 | 0.00 | 40 | 1018.1 |
| 20260831161423 | 96 | 190 | 3.0 | 6.0 | 0.00 | 0.00 | 0.00 | 41 | 1018.0 |
| 20260831160919 | 95 | 202 | 5.0 | 10.0 | 0.00 | 0.00 | 0.00 | 42 | 1018.1 |
| 20260831160413 | 95 | 224 | 5.0 | 8.0 | 0.00 | 0.00 | 0.00 | 41 | 1018.0 |
| 20260831155908 | 95 | 196 | 9.0 | 10.0 | 0.00 | 0.00 | 0.00 | 42 | 1018.0 |
| 20260831155403 | 94 | 98 | 5.0 | 8.0 | 0.00 | 0.00 | 0.00 | 42 | 1018.0 |
| 20260831154858 | 94 | 161 | 8.0 | 10.0 | 0.00 | 0.00 | 0.00 | 43 | 1018.0 |
| 20260831154355 | 94 | 258 | 6.0 | 10.0 | 0.00 | 0.00 | 0.00 | 43 | 1017.9 |
| 20260831153852 | 93 | 273 | 5.0 | 7.0 | 0.00 | 0.00 | 0.00 | 43 | 1018.0 |
| 20260831153349 | 93 | 160 | 3.0 | 8.0 | 0.00 | 0.00 | 0.00 | 44 | 1018.0 |
| 20260831152845 | 92 | 200 | 5.0 | 9.0 | 0.00 | 0.00 | 0.00 | 45 | 1018.2 |
| 20260831152340 | 91 | 169 | 3.0 | 9.0 | 0.00 | 0.00 | 0.00 | 45 | 1018.0 |
| 20260831151835 | 91 | 205 | 5.0 | 7.0 | 0.00 | 0.00 | 0.00 | 46 | 1017.9 |
| 20260831151334 | 91 | 256 | 6.0 | 10.0 | 0.00 | 0.00 | 0.00 | 46 | 1018.1 |
| 20260831150829 | 90 | 242 | 4.0 | 11.0 | 0.00 | 0.00 | 0.00 | 47 | 1018.1 |
| 20260831150325 | 91 | 178 | 10.0 | 13.0 | 0.00 | 0.00 | 0.00 | 46 | 1018.1 |
| 20260831145823 | 90 | 199 | 4.0 | 7.0 | 0.00 | 0.00 | 0.00 | 47 | 1018.1 |
| 20260831145320 | 90 | 199 | 7.0 | 10.0 | 0.00 | 0.00 | 0.00 | 47 | 1018.0 |
| 20260831144816 | 90 | 177 | 5.0 | 7.0 | 0.00 | 0.00 | 0.00 | 48 | 1018.0 |
| 20260831144312 | 89 | 197 | 4.0 | 8.0 | 0.00 | 0.00 | 0.00 | 48 | 1018.1 |
| 20260831143812 | 89 | 207 | 2.0 | 3.0 | 0.00 | 0.00 | 0.00 | 49 | 1018.3 |
| 20260831143307 | 88 | 160 | 6.0 | 9.0 | 0.00 | 0.00 | 0.00 | 49 | 1018.1 |
| 20260831142802 | 88 | 146 | 2.0 | 6.0 | 0.00 | 0.00 | 0.00 | 50 | 1018.0 |
| 20260831142257 | 88 | 188 | 3.0 | 7.0 | 0.00 | 0.00 | 0.00 | 50 | 1018.1 |
| 20260831141751 | 88 | 184 | 4.0 | 6.0 | 0.00 | 0.00 | 0.00 | 51 | 1018.1 |
| 20260831141246 | 87 | 155 | 4.0 | 6.0 | 0.00 | 0.00 | 0.00 | 51 | 1018.2 |
| 20260831140740 | 87 | 164 | 5.0 | 7.0 | 0.00 | 0.00 | 0.00 | 51 | 1018.2 |
| 20260831140235 | 86 | 160 | 8.0 | 10.0 | 0.00 | 0.00 | 0.00 | 51 | 1018.2 |
| 20260831135732 | 86 | 207 | 2.0 | 8.0 | 0.00 | 0.00 | 0.00 | 51 | 1018.2 |
| 20260831135229 | 86 | 180 | 4.0 | 6.0 | 0.00 | 0.00 | 0.00 | 51 | 1018.1 |
| 20260831134724 | 86 | 178 | 3.0 | 6.0 | 0.00 | 0.00 | 0.00 | 51 | 1018.2 |
| 20260831134221 | 86 | 175 | 2.0 | 6.0 | 0.00 | 0.00 | 0.00 | 51 | 1018.3 |
| 20260831133719 | 85 | 186 | 3.0 | 4.0 | 0.00 | 0.00 | 0.00 | 51 | 1018.1 |
| 20260831133214 | 85 | 169 | 4.0 | 7.0 | 0.00 | 0.00 | 0.00 | 51 | 1018.3 |
| 20260831132709 | 85 | 187 | 2.0 | 6.0 | 0.00 | 0.00 | 0.00 | 52 | 1018.2 |
| 20260831132208 | 84 | 163 | 1.0 | 2.0 | 0.00 | 0.00 | 0.00 | 52 | 1018.0 |
| 20260831131703 | 84 | 153 | 1.0 | 2.0 | 0.00 | 0.00 | 0.00 | 52 | 1017.8 |
| 20260831131200 | 83 | 121 | 0.0 | 3.0 | 0.00 | 0.00 | 0.00 | 53 | 1017.8 |
| 20260831130654 | 83 | 179 | 2.0 | 2.0 | 0.00 | 0.00 | 0.00 | 53 | 1018.0 |
| 20260831130150 | 82 | 193 | 2.0 | 3.0 | 0.00 | 0.00 | 0.00 | 53 | 1017.7 |
| 20260831125648 | 82 | 164 | 1.0 | 1.0 | 0.00 | 0.00 | 0.00 | 54 | 1017.5 |
| 20260831125144 | 82 | 125 | 0.0 | 1.0 | 0.00 | 0.00 | 0.00 | 54 | 1017.8 |
| 20260831124639 | 81 | 116 | 0.0 | 0.0 | 0.00 | 0.00 | 0.00 | 54 | 1017.7 |
| 20260831124135 | 81 | 173 | 2.0 | 2.0 | 0.00 | 0.00 | 0.00 | 55 | 1017.4 |
| 20260831123630 | 80 | 161 | 1.0 | 2.0 | 0.00 | 0.00 | 0.00 | 55 | 1017.5 |
| 20260831123129 | 80 | 143 | 1.0 | 1.0 | 0.00 | 0.00 | 0.00 | 55 | 1017.1 |
| 20260831122628 | 80 | 137 | 0.0 | 3.0 | 0.00 | 0.00 | 0.00 | 55 | 1017.2 |
| 20260831122125 | 80 | 187 | 1.0 | 1.0 | 0.00 | 0.00 | 0.00 | 55 | 1017.4 |
| 20260831121624 | 80 | 154 | 0.0 | 3.0 | 0.00 | 0.00 | 0.00 | 54 | 1017.1 |
| 20260831121120 | 80 | 195 | 1.0 | 4.0 | 0.00 | 0.00 | 0.00 | 54 | 1017.0 |
| 20260831120615 | 80 | 177 | 0.0 | 1.0 | 0.00 | 0.00 | 0.00 | 55 | 1017.0 |
| 20260831120110 | 80 | 123 | 0.0 | 1.0 | 0.00 | 0.00 | 0.00 | 55 | 1017.0 |
| 20260831115606 | 80 | 113 | 0.0 | 1.0 | 0.00 | 0.00 | 0.00 | 54 | 1016.8 |
| 20260831115102 | 81 | 123 | 0.0 | 2.0 | 0.00 | 0.00 | 0.00 | 53 | 1016.7 |
| 20260831114600 | 80 | 97 | 1.0 | 1.0 | 0.00 | 0.00 | 0.00 | 54 | 1016.7 |
| 20260831114055 | 80 | 160 | 1.0 | 2.0 | 0.00 | 0.00 | 0.00 | 53 | 1016.6 |
| 20260831113554 | 80 | 147 | 0.0 | 1.0 | 0.00 | 0.00 | 0.00 | 54 | 1016.7 |
| 20260831113050 | 80 | 172 | 2.0 | 2.0 | 0.00 | 0.00 | 0.00 | 54 | 1016.7 |
| 20260831112549 | 80 | 130 | 0.0 | 1.0 | 0.00 | 0.00 | 0.00 | 53 | 1016.4 |
| 20260831112044 | 80 | 131 | 0.0 | 0.0 | 0.00 | 0.00 | 0.00 | 53 | 1016.4 |
| 20260831111541 | 81 | 194 | 1.0 | 2.0 | 0.00 | 0.00 | 0.00 | 53 | 1016.4 |
| 20260831111036 | 81 | 138 | 0.0 | 4.0 | 0.00 | 0.00 | 0.00 | 52 | 1016.1 |
| 20260831110531 | 81 | 129 | 1.0 | 2.0 | 0.00 | 0.00 | 0.00 | 52 | 1016.3 |
| 20260831110026 | 81 | 125 | 0.0 | 1.0 | 0.00 | 0.00 | 0.00 | 52 | 1016.1 |
| 20260831105520 | 81 | 215 | 2.0 | 4.0 | 0.00 | 0.00 | 0.00 | 51 | 1016.0 |
| 20260831105015 | 81 | 155 | 1.0 | 3.0 | 0.00 | 0.00 | 0.00 | 52 | 1016.2 |
| 20260831104511 | 82 | 187 | 3.0 | 7.0 | 0.00 | 0.00 | 0.00 | 51 | 1016.0 |
| 20260831104006 | 82 | 162 | 2.0 | 4.0 | 0.00 | 0.00 | 0.00 | 51 | 1016.1 |
| 20260831103501 | 82 | 156 | 0.0 | 2.0 | 0.00 | 0.00 | 0.00 | 51 | 1015.9 |
| 20260831102956 | 82 | 142 | 0.0 | 6.0 | 0.00 | 0.00 | 0.00 | 51 | 1016.0 |
| 20260831102451 | 82 | 158 | 1.0 | 2.0 | 0.00 | 0.00 | 0.00 | 51 | 1016.2 |
| 20260831101946 | 82 | 202 | 2.0 | 6.0 | 0.00 | 0.00 | 0.00 | 50 | 1015.9 |
| 20260831101441 | 82 | 174 | 2.0 | 4.0 | 0.00 | 0.00 | 0.00 | 50 | 1015.9 |
| 20260831100937 | 83 | 192 | 2.0 | 4.0 | 0.00 | 0.00 | 0.00 | 50 | 1016.0 |
| 20260831100433 | 83 | 166 | 4.0 | 4.0 | 0.00 | 0.00 | 0.00 | 49 | 1016.1 |
| 20260831095928 | 83 | 179 | 2.0 | 7.0 | 0.00 | 0.00 | 0.00 | 49 | 1015.9 |
| 20260831095427 | 83 | 185 | 4.0 | 4.0 | 0.00 | 0.00 | 0.00 | 48 | 1015.9 |
| 20260831094922 | 83 | 177 | 3.0 | 7.0 | 0.00 | 0.00 | 0.00 | 48 | 1015.9 |
| 20260831094418 | 84 | 180 | 3.0 | 6.0 | 0.00 | 0.00 | 0.00 | 48 | 1015.7 |
| 20260831093914 | 84 | 186 | 3.0 | 7.0 | 0.00 | 0.00 | 0.00 | 48 | 1015.7 |
| 20260831093408 | 84 | 165 | 4.0 | 7.0 | 0.00 | 0.00 | 0.00 | 47 | 1015.7 |
| 20260831092905 | 84 | 143 | 2.0 | 7.0 | 0.00 | 0.00 | 0.00 | 47 | 1015.8 |
| 20260831092401 | 84 | 183 | 5.0 | 7.0 | 0.00 | 0.00 | 0.00 | 47 | 1015.6 |
| 20260831091856 | 85 | 168 | 2.0 | 6.0 | 0.00 | 0.00 | 0.00 | 47 | 1015.6 |
| 20260831091351 | 85 | 184 | 2.0 | 8.0 | 0.00 | 0.00 | 0.00 | 46 | 1015.6 |
| 20260831090846 | 85 | 179 | 6.0 | 9.0 | 0.00 | 0.00 | 0.00 | 46 | 1015.5 |
| 20260831090342 | 85 | 190 | 2.0 | 6.0 | 0.00 | 0.00 | 0.00 | 46 | 1015.6 |
| 20260831085839 | 85 | 197 | 6.0 | 8.0 | 0.00 | 0.00 | 0.00 | 46 | 1015.4 |
| 20260831085332 | 85 | 168 | 2.0 | 6.0 | 0.00 | 0.00 | 0.00 | 47 | 1015.4 |
| 20260831084827 | 85 | 200 | 1.0 | 4.0 | 0.00 | 0.00 | 0.00 | 47 | 1015.6 |
| 20260831084324 | 85 | 154 | 1.0 | 8.0 | 0.00 | 0.00 | 0.00 | 46 | 1015.5 |
| 20260831083820 | 86 | 196 | 5.0 | 8.0 | 0.00 | 0.00 | 0.00 | 46 | 1015.4 |
| 20260831083315 | 86 | 191 | 7.0 | 9.0 | 0.00 | 0.00 | 0.00 | 46 | 1015.5 |
| 20260831082814 | 86 | 153 | 3.0 | 7.0 | 0.00 | 0.00 | 0.00 | 46 | 1015.4 |
| 20260831082308 | 86 | 91 | 4.0 | 9.0 | 0.00 | 0.00 | 0.00 | 46 | 1015.7 |
| 20260831081804 | 86 | 233 | 2.0 | 3.0 | 0.00 | 0.00 | 0.00 | 45 | 1015.5 |
| 20260831081259 | 86 | 200 | 7.0 | 9.0 | 0.00 | 0.00 | 0.00 | 45 | 1015.5 |
| 20260831080754 | 86 | 182 | 4.0 | 7.0 | 0.00 | 0.00 | 0.00 | 45 | 1015.4 |
| 20260831080249 | 87 | 181 | 3.0 | 8.0 | 0.00 | 0.00 | 0.00 | 44 | 1015.6 |
| 20260831075745 | 87 | 175 | 5.0 | 8.0 | 0.00 | 0.00 | 0.00 | 44 | 1015.6 |
| 20260831075241 | 87 | 161 | 2.0 | 7.0 | 0.00 | 0.00 | 0.00 | 44 | 1015.3 |
| 20260831074740 | 87 | 197 | 3.0 | 6.0 | 0.00 | 0.00 | 0.00 | 43 | 1015.5 |
| 20260831074234 | 87 | 157 | 2.0 | 6.0 | 0.00 | 0.00 | 0.00 | 43 | 1015.2 |
| 20260831073730 | 87 | 179 | 2.0 | 6.0 | 0.00 | 0.00 | 0.00 | 43 | 1015.3 |
| 20260831073229 | 87 | 211 | 3.0 | 7.0 | 0.00 | 0.00 | 0.00 | 43 | 1015.3 |
| 20260831072724 | 87 | 154 | 2.0 | 4.0 | 0.00 | 0.00 | 0.00 | 43 | 1015.3 |
| 20260831072221 | 87 | 147 | 0.0 | 3.0 | 0.00 | 0.00 | 0.00 | 43 | 1015.3 |
| 20260831071720 | 87 | 200 | 3.0 | 6.0 | 0.00 | 0.00 | 0.00 | 42 | 1015.3 |
| 20260831071214 | 87 | 192 | 4.0 | 6.0 | 0.00 | 0.00 | 0.00 | 42 | 1015.5 |
| 20260831070709 | 87 | 109 | 0.0 | 6.0 | 0.00 | 0.00 | 0.00 | 43 | 1015.4 |
| 20260831070203 | 87 | 192 | 2.0 | 3.0 | 0.00 | 0.00 | 0.00 | 42 | 1015.4 |
| 20260831065702 | 87 | 178 | 2.0 | 4.0 | 0.00 | 0.00 | 0.00 | 42 | 1015.3 |
| 20260831065201 | 87 | 152 | 1.0 | 4.0 | 0.00 | 0.00 | 0.00 | 42 | 1015.2 |
| 20260831064656 | 87 | 202 | 2.0 | 7.0 | 0.00 | 0.00 | 0.00 | 42 | 1015.3 |
| 20260831064151 | 87 | 161 | 0.0 | 3.0 | 0.00 | 0.00 | 0.00 | 42 | 1015.3 |
| 20260831063647 | 87 | 150 | 2.0 | 4.0 | 0.00 | 0.00 | 0.00 | 42 | 1015.3 |
| 20260831063142 | 88 | 190 | 1.0 | 4.0 | 0.00 | 0.00 | 0.00 | 42 | 1015.4 |
| 20260831062637 | 88 | 179 | 2.0 | 3.0 | 0.00 | 0.00 | 0.00 | 42 | 1015.2 |
| 20260831062136 | 88 | 212 | 3.0 | 6.0 | 0.00 | 0.00 | 0.00 | 42 | 1015.5 |
| 20260831061634 | 88 | 161 | 1.0 | 3.0 | 0.00 | 0.00 | 0.00 | 42 | 1015.2 |
| 20260831061125 | 88 | 194 | 4.0 | 6.0 | 0.00 | 0.00 | 0.00 | 41 | 1015.3 |
| 20260831060620 | 89 | 143 | 1.0 | 3.0 | 0.00 | 0.00 | 0.00 | 41 | 1015.4 |
| 20260831060115 | 89 | 188 | 4.0 | 4.0 | 0.00 | 0.00 | 0.00 | 41 | 1015.1 |
| 20260831055614 | 89 | 180 | 2.0 | 7.0 | 0.00 | 0.00 | 0.00 | 41 | 1015.3 |
| 20260831055110 | 89 | 190 | 4.0 | 8.0 | 0.00 | 0.00 | 0.00 | 41 | 1015.3 |
| 20260831054609 | 89 | 149 | 2.0 | 6.0 | 0.00 | 0.00 | 0.00 | 41 | 1015.2 |
| 20260831054109 | 89 | 131 | 1.0 | 6.0 | 0.00 | 0.00 | 0.00 | 41 | 1015.1 |
| 20260831053608 | 89 | 168 | 2.0 | 6.0 | 0.00 | 0.00 | 0.00 | 41 | 1015.3 |
| 20260831053102 | 89 | 195 | 2.0 | 6.0 | 0.00 | 0.00 | 0.00 | 41 | 1015.1 |
| 20260831052601 | 89 | 177 | 4.0 | 9.0 | 0.00 | 0.00 | 0.00 | 41 | 1015.0 |
| 20260831052055 | 88 | 212 | 2.0 | 7.0 | 0.00 | 0.00 | 0.00 | 41 | 1015.0 |
| 20260831051553 | 89 | 186 | 0.0 | 3.0 | 0.00 | 0.00 | 0.00 | 42 | 1015.1 |
| 20260831051047 | 89 | 185 | 6.0 | 9.0 | 0.00 | 0.00 | 0.00 | 41 | 1015.0 |
| 20260831050547 | 89 | 194 | 2.0 | 7.0 | 0.00 | 0.00 | 0.00 | 42 | 1015.1 |
| 20260831050046 | 89 | 97 | 4.0 | 6.0 | 0.00 | 0.00 | 0.00 | 42 | 1015.1 |
| 20260831045545 | 89 | 186 | 2.0 | 10.0 | 0.00 | 0.00 | 0.00 | 42 | 1015.2 |
| 20260831045041 | 89 | 350 | 2.0 | 6.0 | 0.00 | 0.00 | 0.00 | 42 | 1015.0 |
| 20260831044536 | 89 | 234 | 2.0 | 7.0 | 0.00 | 0.00 | 0.00 | 42 | 1015.0 |